EW0284 Weather Reports


time (UTC)temp
F
wind
direction
speed
knots
gust
knots
rain 1hr
in
rain 24hr
in
rain mn
in
humidity
%
barometer
mb
20260504050021 56 116 0.0 2.6 0.00 0.00 0.00 61 1012.4
20260504044508 55 224 0.0 0.0 0.00 0.00 0.00 63 1012.7
20260504043002 55 224 0.0 0.0 0.00 0.00 0.00 64 1012.7
20260504041600 54 224 0.0 0.0 0.00 0.00 0.00 65 1012.8
20260504040054 54 219 0.0 0.0 0.00 0.00 0.00 66 1012.9
20260504034553 53 209 0.0 0.0 0.00 0.00 0.00 69 1012.9
20260504033054 50 208 0.0 0.0 0.00 0.00 0.00 76 1013.1
20260504031542 49 182 0.0 0.0 0.00 0.00 0.00 78 1013.3
20260504030026 49 182 0.0 0.0 0.00 0.00 0.00 77 1013.4
20260504024508 50 182 0.0 0.0 0.00 0.00 0.00 75 1013.5
20260504023008 50 182 0.0 0.0 0.00 0.00 0.00 72 1013.5
20260504021513 51 182 0.0 0.0 0.00 0.00 0.00 70 1013.6
20260504020006 52 182 0.0 0.0 0.00 0.00 0.00 67 1013.8
20260504014502 54 182 0.0 0.0 0.00 0.00 0.00 64 1013.7
20260504013119 55 182 0.0 0.0 0.00 0.00 0.00 61 1013.7
20260504011520 57 182 0.0 0.0 0.00 0.00 0.00 59 1013.8
20260504010020 58 182 0.0 0.0 0.00 0.00 0.00 55 1013.6
20260504004512 59 182 0.0 0.0 0.00 0.00 0.00 52 1013.3
20260504003007 60 182 0.0 0.0 0.00 0.00 0.00 50 1013.2
20260504001622 61 246 0.0 0.0 0.00 0.00 0.00 49 1013.1
20260504000101 61 153 0.0 5.2 0.00 0.00 0.00 47 1013.0
20260503234553 62 152 0.0 2.6 0.00 0.00 0.00 47 1012.9
20260503233038 62 186 0.0 3.5 0.00 0.00 0.00 46 1013.0
20260503231547 62 169 0.0 7.8 0.00 0.00 0.00 46 1012.9
20260503230032 62 154 0.0 7.0 0.00 0.00 0.00 46 1013.1
20260503224518 63 225 0.9 7.8 0.00 0.00 0.00 45 1013.6
20260503223014 62 246 0.0 5.2 0.00 0.00 0.00 44 1013.7
20260503221520 62 207 0.0 5.2 0.00 0.00 0.00 43 1014.2
20260503220014 63 134 0.0 4.3 0.00 0.00 0.00 42 1014.3
20260503214519 63 166 0.9 6.1 0.00 0.00 0.00 42 1014.3
20260503213058 63 240 2.6 10.4 0.00 0.00 0.00 41 1014.9
20260503211557 63 275 1.7 7.0 0.00 0.00 0.00 41 1015.1
20260503210046 63 219 0.0 7.0 0.00 0.00 0.00 40 1014.9
20260503204554 62 128 0.9 5.2 0.00 0.00 0.00 40 1015.0
20260503203035 62 167 0.9 3.5 0.00 0.00 0.00 39 1015.6
20260503201511 62 276 4.3 12.2 0.00 0.00 0.00 38 1015.7
20260503200003 62 208 0.9 7.0 0.00 0.00 0.00 40 1016.0
20260503194524 62 248 1.7 8.7 0.00 0.00 0.00 39 1016.3
20260503193055 61 224 2.6 6.1 0.00 0.00 0.00 39 1016.9
20260503191553 61 210 1.7 8.7 0.00 0.00 0.00 40 1017.2
20260503190039 61 235 1.7 7.8 0.00 0.00 0.00 38 1017.5
20260503184523 61 145 1.7 10.4 0.00 0.00 0.00 40 1017.7
20260503183012 60 240 0.9 5.2 0.00 0.00 0.00 38 1017.9
20260503181559 59 175 0.9 6.1 0.00 0.00 0.00 39 1018.3
20260503180053 59 221 1.7 10.4 0.00 0.00 0.00 39 1018.6
20260503174547 59 135 0.9 7.0 0.00 0.00 0.00 40 1018.6
20260503173105 59 271 0.9 7.0 0.00 0.00 0.00 39 1018.9
20260503171504 59 217 2.6 6.1 0.00 0.00 0.00 39 1019.0
20260503081524 32 321 0.0 0.0 0.00 0.00 0.00 91 1019.5
20260503071601 33 321 0.0 0.0 0.00 0.00 0.00 90 1019.3
20260503054505 35 321 0.0 0.0 0.00 0.00 0.00 88 1019.7
20260503053010 36 321 0.0 0.0 0.00 0.00 0.00 88 1019.6